CAPE
990 978 1111 687 78 40 75 134 469 604 595 684 602 767 580 346 1082 1356 1611 2061 2253 2048 2091 2331 2289 2149 2014 1763 2047 2170 1945 2254 1891 1683 1754 1840 1712 1842 1517 1019 1113 1857 1514 1592 1937 1995 2453 1973 2366 1998 3176 3359 3158 3662 4441 4954 4255 3271 3941 4475 4480 3671 3580
1012 911 939 469 74 164 250 344 531 678 497 570 444 1051 777 721 1084 814 1624 2044 2128 2148 2063 1998 2482 2259 1914 1868 1636 2258 2198 2144 2087 2328 1638 2366 2705 2808 1658 1486 1566 1942 2410 1938 2126 1864 1985 1372 1964 2514 2388 3185 2811 3616 3550 4257 4054 3963 3289 3995 3840 4126 4069
598 810 808 634 385 428 416 302 326 441 495 528 400 423 640 1569 1414 1622 1953 1936 2156 2258 1928 1895 2331 1987 1943 2108 1968 2037 1798 1631 1799 1446 1331 1274 1489 1099 1233 1707 1742 1419 1040 1184 2024 1613 1213 1334 2268 2543 2331 2280 2193 3486 4103 4143 4149 3561 3743 4087 4500 3996 4440
255 524 726 762 669 656 511 528 610 545 494 270 717 303 1086 1732 1365 2061 2096 2097 1927 2167 2091 1627 1899 1546 1550 1906 1728 1840 1678 1732 1486 975 886 904 1056 1099 1472 1769 1898 1361 1591 1029 796 1048 759 1204 1724 2260 2541 2666 3057 2601 2994 3233 2987 3465 3514 3915 3956 3867 4426
1811 1121 363 492 286 592 1140 630 773 790 488 273 409 973 1408 1679 1441 1640 2086 1816 1746 2074 1718 1558 1515 1585 1441 1496 1399 1282 1490 1295 1327 939 758 797 1338 1444 1106 896 919 1209 1590 1124 1494 2066 2108 2148 745 2261 2361 2804 2290 2446 3198 3395 2891 3697 3897 3798 3844 3468 3504
1513 1140 1050 531 254 301 880 894 466 556 538 533 564 1078 652 640 1236 907 1355 1868 2243 1844 1720 1676 1317 1345 1266 1285 1000 951 1522 1760 1749 1611 1088 999 1272 868 969 914 937 1113 1136 1143 1059 952 1806 1437 1440 1290 1539 1567 1444 1305 1662 2242 2428 2423 3324 3674 3689 3451 2800
1614 1514 1247 838 996 1161 1710 1538 651 388 623 604 889 950 1188 698 822 1045 1391 1515 1743 1764 1655 1093 757 697 1132 1203 1348 1316 1322 1249 1442 1082 833 771 668 853 1149 1192 1461 967 982 1380 1415 1163 1056 1592 1679 1855 1377 1149 1919 1374 1618 2434 2451 2399 2800 3623 4057 3863 3786
1876 1560 1517 1786 819 1704 1661 1597 1125 634 1003 1266 1074 810 1201 945 538 923 843 1578 1487 1522 985 819 627 563 988 988 828 725 740 881 969 964 821 642 660 734 811 886 981 1356 1414 963 1418 1464 1049 1769 1371 1670 1715 1246 1315 1958 1264 2007 2904 1840 1931 2663 3160 3263 2443
1983 2328 2406 1564 1469 1118 932 754 532 851 1362 1350 1418 1778 1252 1061 1076 1004 1351 1490 1798 1873 1356 781 614 568 1052 889 860 995 695 783 985 925 865 741 550 504 581 628 795 1176 1064 1071 1092 1308 1356 1242 1552 2125 2070 1627 1784 2379 2062 2913 2233 1966 2275 2364 2886 2971 2513
1387 1983 1796 1715 1598 1926 1976 1422 1224 1462 1540 1548 1021 1167 1533 1365 1309 1295 2065 2159 2266 2056 2050 1172 644 1061 1380 1270 698 491 430 607 442 607 758 696 542 406 373 419 460 961 845 1027 978 972 1672 1401 1526 1966 2657 2410 2542 2888 2662 2639 2317 2168 2402 2670 2731 2518 2935
1354 1466 1592 1470 2008 1655 1468 1569 1511 1764 1022 844 1337 3808 3392 3166 2013 2609 1771 2031 1931 2678 2733 2460 2544 2406 1347 1732 1278 946 378 339 398 385 533 564 493 362 269 296 354 450 595 831 929 886 875 1884 1847 2142 2822 2130 2270 2513 2861 2517 2465 2678 2342 2156 1922 2225 1839
1522 1433 1416 1624 1670 1429 1428 1404 1632 1268 1146 1351 775 1671 2205 1934 2471 2895 2910 2330 2411 1888 1826 2899 2319 2931 2772 1828 1087 2121 1335 538 538 592 890 920 578 969 1634 769 259 355 499 841 1317 1189 1287 808 1395 1593 2237 2482 2703 2678 2796 2818 2804 3015 2924 2196 1674 1461 1650
1264 1087 1243 1405 1493 1181 1145 1218 923 1209 1230 1334 1300 826 2240 1966 1511 1928 962 842 1551 2172 2772 2920 2066 2019 1821 1697 1500 2129 1969 1986 1975 1840 1346 1335 1601 1138 1032 788 786 1392 755 579 863 1044 1611 1176 834 1010 1109 2038 2427 2168 2296 2741 2235 3323 3186 2773 2436 2192 2336
997 965 1175 1154 1136 936 896 1062 1117 1156 1417 1265 1650 1528 903 1406 1835 1714 1539 1436 1446 2109 2809 3152 3052 1993 1795 2011 2079 2093 2112 1853 2300 2266 3119 2513 2683 1926 1094 851 880 1376 1259 1068 977 1014 1378 1301 1136 1178 845 1350 1204 1516 2029 2316 2359 2886 2960 2838 2733 2826 2703
703 796 1129 978 759 739 690 567 689 844 893 1143 1570 1142 1467 1536 1775 1934 2047 1772 1554 1722 1171 2809 3144 3280 3294 2829 2494 4057 4258 4410 3718 3810 4098 3707 3822 2947 1701 1245 1130 1682 2087 2236 2355 2163 1667 1729 1715 1274 1440 1274 1063 922 1250 1378 1802 1628 1704 4048 3709 3409 3244
731 748 567 643 634 537 543 717 557 709 1040 1345 1319 1274 1185 1263 1745 1813 1647 2078 2633 2356 2251 2427 3008 3153 3812 3818 3487 3397 4160 3980 3980 3928 4481 4258 4043 3722 3279 2636 3108 3562 3515 3337 2830 1786 2534 2462 1675 1384 1519 1069 1518 930 1145 1480 1818 1653 2154 2855 3646 3651 3032
800 690 607 647 738 685 689 684 688 869 1310 1678 1428 1076 1387 1203 1109 1549 2039 2247 2529 2573 2584 2718 2631 3032 3128 3409 3494 3784 3653 3382 3345 3528 4142 4303 4286 4224 4012 3781 3608 3528 3238 2529 2218 2502 2007 2055 1651 1620 1634 1068 860 1143 1539 1464 1794 1063 1016 1146 1267 2968 2990
519 702 769 772 660 764 800 876 945 1019 1146 1451 1640 1582 1469 1886 1684 1844 1936 1978 1710 2066 2208 2303 2466 2500 2680 2770 2747 2772 3120 2912 2985 3142 3168 3116 3412 3358 3934 3785 3441 3272 2953 2524 2488 2395 1778 1526 1522 1755 1527 917 912 1377 1658 1120 831 909 907 949 1097 1241 1865
355 458 436 579 609 478 598 755 776 927 928 976 1254 1492 1673 1671 1527 1551 1792 1808 1454 2077 1842 1683 1694 1882 2048 2097 2062 2303 2223 2245 2373 2571 2404 2630 3043 2794 3233 3605 3340 3158 3014 2808 2447 2320 2018 2197 2116 1871 1856 1375 1364 1721 1558 1175 660 647 755 788 819 898 1214
284 228 340 278 157 232 562 704 664 800 797 786 812 847 1292 1635 1570 1570 1691 1998 2063 1791 1972 1750 1934 2227 2079 2360 2407 2472 2394 1509 1522 1585 2226 2852 3168 3369 3287 3387 3121 2965 2679 2336 2105 2019 2244 2265 2217 2312 1901 1572 1551 1400 1206 962 763 740 722 708 752 931 995
257 334 354 365 339 386 332 358 672 644 646 655 750 822 800 1034 1648 1619 1619 1784 1775 1923 1883 2024 2044 2159 2164 1818 1815 2155 2262 2506 2309 2338 2310 2003 2399 2921 3064 2902 3036 2784 2338 1868 1755 1826 1820 1782 1739 1888 1785 1715 1541 1250 826 716 773 730 802 929 968 986 1013
543 436 389 464 551 515 404 340 503 629 696 744 716 776 768 1175 1390 1424 1590 1601 1590 1717 1734 1578 1730 1703 1370 1402 1608 1883 1989 2050 1890 2110 2040 2015 2167 2023 1849 1874 1792 2092 2128 1659 1476 1414 1423 1303 1271 1471 1550 1701 1586 1069 952 864 874 834 871 1071 1156 1149 1168
752 632 537 528 654 622 610 539 360 464 626 620 638 609 602 837 1004 1057 1102 1092 1122 1136 1149 1200 1333 1346 1350 1168 1045 1146 1299 1220 1689 1868 1541 1478 1574 1563 1472 1356 1279 1870 2210 1646 1623 1477 1338 1342 1590 2116 1691 1549 1678 1100 882 762 751 770 787 784 892 1067 1221
654 809 708 645 652 679 613 630 490 417 278 402 441 452 465 639 824 964 1004 1006 1044 1049 1084 1171 1183 1120 1023 1010 990 1164 1220 1082 1045 1088 1241 1269 1211 1030 1008 1010 1117 1080 1850 1624 1706 1859 1897 2098 1586 1383 1618 1590 1467 1038 816 761 698 673 675 582 514 546 897
624 637 663 640 491 352 388 425 366 284 219 281 334 331 315 378 494 608 610 617 612 678 785 862 822 831 876 880 828 762 735 882 800 777 941 784 742 662 592 687 889 957 861 978 1340 1285 1200 1510 1362 1133 1136 1058 895 760 706 649 715 660 642 588 493 495 685
514 388 233 170 147 161 253 190 252 232 261 339 321 332 317 342 398 416 414 391 426 436 434 478 506 524 534 517 561 589 582 586 601 665 624 597 566 537 522 583 381 375 615 729 892 843 1113 891 826 940 950 936 738 660 641 568 611 644 606 504 431 391 486
506 247 72 16 24 59 63 186 231 278 317 275 302 300 275 235 274 351 384 389 389 393 365 404 411 408 384 382 340 330 314 263 240 257 285 296 326 341 332 339 261 280 581 687 670 697 745 809 771 700 804 802 784 799 802 717 635 580 512 448 392 368 455
299 78 7 28 82 19 0 1 160 174 167 174 171 192 187 153 152 228 256 281 277 303 286 210 209 187 208 227 232 225 186 126 235 197 197 182 171 194 182 60 10 31 174 290 603 600 554 711 649 644 619 547 650 766 752 661 566 520 484 461 455 474 506
96 256 41 63 34 67 12 45 134 118 142 122 119 132 138 153 139 120 145 191 197 196 183 165 143 129 117 94 75 104 131 134 132 140 153 139 5 56 132 1 4 139 249 441 356 492 443 588 570 518 571 657 694 599 505 531 480 431 422 416 394 378 354
140 61 2 16 6 18 35 35 33 84 85 102 92 90 91 92 110 114 103 108 103 101 96 107 94 0 0 0 0 0 0 29 12 12 23 17 10 8 5 2 69 2 17 138 121 186 224 292 406 379 385 280 326 335 332 347 438 417 384 340 346 351 290
55 2 0 0 1 9 18 44 46 33 60 86 91 91 130 80 88 91 96 87 85 93 81 17 0 0 0 0 0 0 0 0 0 0 0 0 0 2 6 7 6 6 5 0 1 1 4 42 84 117 132 230 269 262 296 287 245 254 225 210 80 47 54
0 1 0 0 2 2 0 1 2 72 80 63 116 140 233 128 79 124 53 24 30 0 0 16 0 0 0 0 0 0 0 0 0 0 0 0 0 0 2 3 4 3 1 0 0 0 1 3 74 154 191 207 211 200 183 125 108 123 146 170 103 70 80
38 52 15 11 10 16 1 0 0 1 10 13 146 162 149 190 172 235 356 242 33 6 45 0 0 0 0 0 0 0 0 0 0 0 0 0 0 0 0 0 0 0 0 0 0 0 0 0 0 0 10 38 56 42 25 4 0 6 29 34 36 58 70
466 27 58 6 0 2 3 5 11 17 17 22 30 28 3 6 36 73 127 31 19 17 6 6 0 0 0 0 0 0 0 0 0 0 0 0 0 0 0 0 0 0 0 0 0 0 0 0 0 0 0 0 0 0 0 0 0 0 0 0 8 15 29
19 417 462 322 275 430 363 116 54 34 0 0 8 32 111 103 58 27 77 83 124 373 120 3 0 0 0 0 0 0 0 0 0 0 0 0 0 0 0 0 0 0 0 0 0 0 0 0 0 0 0 0 0 0 0 0 0 0 0 0 0 0 0
358 242 265 280 354 404 443 450 374 199 141 133 78 27 33 28 52 98 18 83 86 76 17 30 22 0 0 0 0 0 0 0 0 0 0 0 0 0 0 0 0 0 0 0 0 0 0 0 0 0 0 0 0 0 0 0 0 0 0 0 0 0 0
393 391 318 170 369 440 491 428 338 216 218 295 374 138 99 58 1 51 26 100 79 7 81 5 0 0 0 0 0 0 0 0 0 0 0 0 0 0 0 0 0 0 0 0 0 0 0 0 0 0 0 0 0 0 0 0 0 0 0 0 0 0 0
414 378 851 685 541 604 530 529 472 390 314 285 291 239 179 48 75 170 18 36 28 34 69 171 142 2 0 0 10 82 6 0 0 0 0 0 0 0 0 0 0 0 0 0 0 0 0 0 0 0 0 0 0 0 0 0 0 0 0 0 0 0 0
Wind_Speed
11 13 20 22 nan nan nan 17 18 19 17 15 13 14 7 10 14 14 13 13 12 12 10 10 9 9 7 6 5 5 5 5 5 3 3 3 2 3 4 5 3 1 2 3 3 4 1 4 5 4 0 3 5 5 5 4 4 6 5 5 5 4 6
11 12 20 22 nan 14 16 19 20 21 17 16 16 17 10 11 16 14 15 13 12 12 11 11 11 10 8 8 7 7 6 5 5 5 4 4 4 3 3 4 3 3 1 2 1 1 2 2 3 3 2 2 4 3 5 4 4 5 4 3 5 5 4
12 10 19 22 20 21 17 20 19 19 16 16 15 14 14 16 17 16 17 15 13 13 12 12 12 11 10 10 9 8 7 6 6 5 4 5 5 5 4 4 4 3 2 1 3 0 0 1 1 2 2 0 2 1 1 2 2 2 3 1 2 3 3
12 11 18 25 26 22 18 18 19 19 19 16 15 13 18 16 19 18 19 17 13 13 12 13 12 11 11 12 10 10 8 6 6 6 5 5 6 5 6 5 6 3 3 2 1 2 2 2 3 3 1 2 3 4 5 3 3 3 2 2 2 1 1
17 17 17 26 30 30 28 22 19 20 17 14 13 16 24 22 19 20 20 17 14 13 13 13 13 12 13 12 12 11 10 8 7 7 6 6 6 7 6 6 6 4 3 3 3 5 5 5 3 6 5 4 3 3 5 7 4 5 5 5 5 3 2
13 15 19 26 25 25 26 22 18 18 18 15 17 17 19 18 18 17 18 18 16 15 15 13 12 13 13 13 12 12 12 10 10 9 8 8 7 6 7 6 6 7 5 3 4 4 6 4 3 5 7 8 6 6 7 7 8 7 7 7 6 5 3
12 10 12 17 20 19 22 26 20 17 20 18 22 21 21 22 19 18 18 16 16 16 15 12 13 14 14 14 14 13 14 12 12 9 8 7 7 7 7 7 6 6 6 7 6 6 6 7 5 5 7 7 9 9 8 10 9 9 8 9 8 6 4
12 9 10 16 16 23 34 38 37 26 23 22 24 19 23 21 20 18 18 18 18 17 15 14 13 16 16 15 15 13 14 13 14 11 11 8 8 7 7 7 8 7 7 6 8 8 6 8 7 7 6 6 7 8 8 9 12 9 8 8 9 7 6
23 22 22 25 27 25 25 31 35 36 25 25 28 27 24 22 21 22 21 21 21 20 19 16 15 18 18 15 16 14 14 14 14 14 11 10 8 8 7 7 7 9 7 7 7 10 9 10 8 8 8 7 8 9 8 8 9 10 9 8 7 8 7
31 28 27 29 27 29 28 30 34 35 35 29 28 23 23 26 24 23 24 24 25 22 23 20 18 21 20 18 15 14 14 15 14 14 13 10 10 7 7 7 9 9 7 8 7 7 11 10 9 10 10 10 9 9 9 9 9 8 8 8 7 7 9
30 31 30 28 26 26 25 27 33 39 39 42 37 31 38 37 27 29 28 26 24 25 25 27 26 24 21 20 18 17 16 15 14 13 14 12 12 10 8 8 8 10 10 9 8 8 8 13 10 11 13 9 10 10 10 10 10 10 9 9 8 8 7
26 29 30 29 27 26 26 26 29 32 36 36 36 37 37 36 35 34 34 29 28 25 25 27 27 25 25 21 18 20 16 14 15 14 18 18 16 15 17 15 10 9 11 13 14 14 11 9 14 10 12 12 11 11 12 12 11 11 11 9 8 9 9
26 29 30 31 30 30 28 26 26 29 29 35 42 42 40 40 39 38 32 27 27 24 25 25 26 25 22 19 19 21 20 18 20 20 18 20 21 18 17 17 19 20 20 20 15 15 19 22 20 16 12 15 10 11 12 14 12 13 13 12 11 11 12
28 31 33 31 31 31 32 29 30 31 32 38 49 48 40 38 42 36 33 31 28 22 24 25 27 24 21 21 21 19 19 16 20 19 21 22 24 21 19 17 17 19 24 23 24 24 24 23 20 15 16 20 16 13 14 13 14 14 13 14 13 14 18
33 33 35 36 32 31 31 29 27 33 34 37 45 51 46 44 44 37 33 30 29 30 28 27 30 28 25 24 20 24 24 22 22 23 24 24 25 24 22 20 19 21 23 23 21 22 23 22 22 18 18 19 17 15 9 19 19 14 13 17 19 19 20
39 39 38 40 38 34 31 24 23 30 36 38 47 50 46 48 45 42 42 42 42 42 43 39 36 31 28 27 25 26 25 25 25 25 25 26 26 26 26 24 24 25 27 27 26 24 23 26 26 22 21 20 22 26 23 21 20 22 21 22 22 22 21
37 40 40 42 40 37 35 33 32 36 40 42 45 46 44 38 32 29 35 40 37 39 38 37 31 27 29 28 29 27 27 30 29 29 26 28 28 28 28 27 27 28 29 28 27 25 25 24 25 25 29 32 29 27 25 24 26 26 24 25 25 23 23
37 38 39 39 37 34 32 33 35 38 41 39 40 41 41 41 37 34 34 37 35 33 31 29 29 28 27 28 28 27 28 33 34 30 25 23 24 24 27 28 29 29 28 28 27 26 25 24 25 28 33 34 31 31 30 30 32 29 29 29 29 28 25
36 39 37 36 35 35 33 34 34 36 36 35 36 41 42 41 40 40 41 42 36 31 28 27 26 25 24 25 26 26 30 35 28 18 15 17 21 21 23 25 26 27 28 29 29 28 26 25 26 29 32 33 31 30 30 30 35 34 32 29 28 29 28
34 38 38 38 36 34 31 34 34 35 37 36 38 41 39 39 39 38 38 38 35 31 30 26 23 24 24 26 27 29 29 31 20 18 19 21 22 22 22 24 24 27 29 30 31 30 29 29 29 31 32 33 35 35 31 34 35 36 38 34 32 33 31
32 32 37 39 37 30 29 33 36 37 39 38 38 41 40 38 37 37 37 36 35 33 31 30 27 27 30 33 29 30 29 27 23 21 25 26 24 25 25 25 27 29 32 32 32 31 31 32 31 32 33 33 35 36 37 37 36 39 41 40 36 33 31
28 28 32 34 36 29 24 28 32 32 32 30 28 30 36 40 42 41 43 43 39 36 35 32 31 32 33 33 30 25 25 27 25 25 25 25 27 29 29 30 25 25 32 33 33 32 34 35 34 33 34 35 35 36 41 40 42 42 45 44 41 35 32
26 25 25 27 28 24 19 20 23 22 22 21 19 19 23 28 36 42 45 47 46 46 45 44 42 39 36 35 31 31 29 25 23 24 26 25 25 27 28 26 19 20 31 33 34 36 37 38 39 39 40 40 39 43 43 43 43 45 47 48 46 41 38
28 26 24 23 23 20 16 15 19 20 18 16 14 13 13 17 24 31 39 43 44 43 42 40 38 36 36 33 29 30 27 25 25 25 24 22 21 23 26 25 20 17 25 28 32 37 40 42 44 45 43 44 45 47 46 46 46 49 49 49 49 44 42
29 26 24 24 23 21 18 17 19 20 19 17 14 11 12 14 17 22 28 31 32 30 29 27 25 27 28 26 25 26 25 24 25 24 23 24 26 26 26 24 19 15 18 23 30 36 39 41 44 46 48 50 53 56 51 47 49 52 52 52 50 46 43
24 24 24 25 24 23 20 18 18 20 21 21 17 14 13 13 15 18 19 22 23 22 20 17 16 17 18 20 21 21 22 22 23 24 24 25 26 26 26 23 22 24 18 24 26 29 31 34 39 44 49 51 52 51 51 50 50 52 55 54 53 50 46
22 22 nan nan nan nan nan 18 16 16 16 13 13 14 14 14 16 17 17 18 20 21 18 15 14 16 17 18 19 20 22 21 23 24 25 25 24 25 26 26 27 30 34 26 25 26 26 30 34 40 45 49 52 52 50 48 49 53 57 56 55 55 51
20 nan nan nan nan nan nan nan 13 14 13 11 11 12 12 13 14 13 14 16 19 18 16 16 17 18 19 19 20 22 21 20 21 23 24 27 28 26 24 nan nan nan 34 30 28 29 27 29 31 34 37 40 45 43 37 37 44 43 51 55 54 54 54
nan 17 nan nan nan nan nan nan 17 17 15 13 14 13 14 16 15 15 15 16 15 14 15 16 17 19 21 nan nan 22 22 22 23 23 23 27 nan nan 24 nan nan 30 30 28 27 28 31 32 29 29 29 30 28 27 25 26 29 36 39 46 49 51 51
21 nan nan nan nan nan nan nan nan nan nan 17 nan nan nan nan 18 18 18 18 15 16 nan 17 nan nan nan nan nan nan nan nan nan nan nan nan nan nan nan nan nan nan nan 27 26 28 30 27 25 27 28 27 24 23 26 28 30 33 36 35 39 40 40
nan nan nan nan nan nan nan nan nan nan nan nan nan nan 20 nan nan nan nan nan nan nan nan nan nan nan nan nan nan nan nan nan nan nan nan nan nan nan nan nan nan nan nan nan nan nan nan nan nan 28 31 31 30 31 32 34 35 35 33 32 nan nan nan
nan nan nan nan nan nan nan nan nan nan nan nan 22 22 21 22 nan 25 nan nan nan nan nan nan nan nan nan nan nan nan nan nan nan nan nan nan nan nan nan nan nan nan nan nan nan nan nan nan nan 32 33 33 33 33 33 33 34 33 31 30 32 nan nan
nan nan nan nan nan nan nan nan nan nan nan nan 24 23 23 22 22 22 20 21 nan nan nan nan nan nan nan nan nan nan nan nan nan nan nan nan nan nan nan nan nan nan nan nan nan nan nan nan nan nan nan nan nan nan nan nan nan nan nan nan nan nan nan
28 nan nan nan nan nan nan nan nan nan nan nan nan nan nan nan nan nan 25 nan nan nan nan nan nan nan nan nan nan nan nan nan nan nan nan nan nan nan nan nan nan nan nan nan nan nan nan nan nan nan nan nan nan nan nan nan nan nan nan nan nan nan nan
nan 26 26 28 29 30 30 30 nan nan nan nan nan nan 26 26 nan nan nan nan 23 21 22 nan nan nan nan nan nan nan nan nan nan nan nan nan nan nan nan nan nan nan nan nan nan nan nan nan nan nan nan nan nan nan nan nan nan nan nan nan nan nan nan
25 25 24 25 26 29 31 32 31 31 30 28 nan nan nan nan nan nan nan nan nan nan nan nan nan nan nan nan nan nan nan nan nan nan nan nan nan nan nan nan nan nan nan nan nan nan nan nan nan nan nan nan nan nan nan nan nan nan nan nan nan nan nan
24 24 25 27 27 28 29 29 30 31 31 30 29 30 nan nan nan nan nan nan nan nan nan nan nan nan nan nan nan nan nan nan nan nan nan nan nan nan nan nan nan nan nan nan nan nan nan nan nan nan nan nan nan nan nan nan nan nan nan nan nan nan nan
25 27 27 28 28 28 29 30 30 31 32 30 29 28 28 nan nan 26 nan nan nan nan nan 22 23 nan nan nan nan nan nan nan nan nan nan nan nan nan nan nan nan nan nan nan nan nan nan nan nan nan nan nan nan nan nan nan nan nan nan nan nan nan nan
Wind_Direction
276 242 199 187 nan nan nan 245 247 249 245 250 244 253 237 257 251 246 249 249 246 247 244 246 248 239 243 236 239 228 233 229 243 243 248 263 289 302 326 340 354 339 333 24 59 95 148 120 130 111 73 71 99 113 117 110 94 80 88 88 88 88 97
264 242 209 191 nan 222 235 240 243 247 241 238 247 249 237 240 246 247 244 251 250 253 250 252 249 248 247 243 237 245 238 251 251 246 269 258 266 277 301 315 303 307 151 119 325 35 122 49 121 130 101 22 87 113 96 101 104 103 97 67 83 87 78
261 241 220 201 201 201 214 238 240 249 249 246 250 247 246 225 246 247 251 253 252 255 252 254 249 255 252 246 246 249 257 260 264 281 289 300 318 336 307 278 286 273 330 123 182 215 317 110 245 165 165 178 32 40 59 82 89 76 90 94 72 63 61
257 247 228 219 202 205 204 226 234 240 247 242 235 252 254 244 243 244 253 255 256 259 259 257 257 256 259 255 256 253 262 256 263 278 298 298 315 319 290 276 262 252 255 251 181 187 201 271 276 258 222 234 287 343 352 353 356 350 356 318 318 39 20
226 226 233 230 211 195 202 210 222 236 244 250 252 242 245 246 248 242 248 258 259 263 262 262 256 256 251 262 256 259 265 276 269 267 276 272 272 284 294 308 297 299 255 277 238 244 209 219 262 275 281 274 285 304 305 317 324 308 312 310 307 321 330
228 222 218 233 220 201 200 196 212 231 241 245 243 235 252 256 245 254 255 257 255 257 258 251 263 258 257 260 259 261 266 264 253 253 257 265 273 288 297 298 304 306 311 284 262 260 265 247 243 276 304 316 328 329 327 324 329 331 318 310 307 316 322
233 226 222 230 229 221 222 209 202 223 232 231 227 226 239 251 252 250 251 255 261 260 264 264 265 264 255 256 258 260 271 276 272 277 272 281 284 286 284 283 282 289 292 282 286 274 284 283 273 259 278 301 310 326 312 310 314 314 306 308 312 307 286
212 238 226 218 234 228 220 214 199 201 229 228 238 237 237 244 246 250 252 251 252 256 260 268 261 259 257 255 260 269 271 277 277 277 272 279 280 288 283 283 281 276 274 295 289 289 291 278 293 296 296 306 308 309 312 304 309 320 306 302 307 313 316
226 221 224 226 221 227 242 224 211 189 202 233 227 224 239 238 233 227 237 249 250 247 252 254 256 259 262 255 256 264 270 270 274 277 279 281 274 280 285 283 280 271 283 288 285 290 288 288 301 278 291 306 296 293 304 296 297 302 303 299 298 305 310
224 232 236 239 231 224 230 227 212 210 199 209 236 225 229 238 233 231 232 233 244 252 247 247 246 238 245 254 259 268 266 267 267 278 277 277 270 270 275 273 274 273 275 278 275 284 289 296 295 303 293 291 288 291 296 296 296 300 301 295 283 290 301
224 229 235 238 235 233 234 226 217 218 219 208 201 218 227 222 233 235 235 240 243 245 242 244 240 240 249 255 250 251 262 265 266 268 277 276 265 269 265 259 252 260 268 266 266 265 266 272 274 265 276 294 299 298 293 293 290 289 290 291 300 299 298
219 231 230 231 237 240 239 233 222 227 229 225 211 205 222 225 219 227 226 222 238 234 239 239 240 238 236 244 255 244 244 258 262 264 257 257 254 239 234 238 250 257 255 257 248 243 236 246 260 260 259 274 278 278 279 283 284 282 288 300 305 303 305
220 224 229 226 230 239 243 247 241 230 234 223 220 208 214 224 218 217 231 217 220 226 234 238 241 238 239 241 248 244 235 243 255 252 255 264 262 260 255 247 236 231 237 245 241 246 246 238 230 233 238 239 254 285 285 280 284 282 283 286 288 285 277
232 234 236 234 230 232 240 243 249 246 241 231 217 219 209 217 223 216 213 214 210 210 231 236 244 247 241 242 247 251 256 255 259 261 257 257 259 262 263 257 251 251 257 254 254 257 258 252 244 240 248 250 229 218 245 269 272 269 276 281 278 275 272
225 231 242 242 238 239 240 245 253 254 243 238 226 219 209 211 219 213 212 219 215 228 227 223 230 237 237 247 251 252 251 246 248 255 256 258 257 259 260 257 254 250 252 258 260 263 268 269 264 255 255 255 257 236 233 254 246 251 255 270 270 270 272
225 227 232 238 240 242 247 250 250 254 251 244 237 230 219 214 208 198 204 212 218 221 227 227 223 222 230 230 234 244 251 249 244 246 251 253 256 257 256 256 255 253 252 251 251 253 252 254 255 258 263 264 261 262 252 258 267 256 249 257 261 262 262
225 225 228 233 237 243 245 242 238 238 237 234 231 227 222 224 217 215 212 223 221 227 224 224 235 229 226 229 229 226 237 245 237 235 241 245 247 252 255 255 253 254 255 256 255 257 259 258 259 256 252 255 261 264 264 260 253 249 250 249 250 258 265
226 228 230 233 235 237 239 238 234 232 236 235 227 221 220 221 222 219 223 228 226 229 230 224 225 228 227 226 223 225 227 235 232 227 225 233 240 245 254 256 256 255 254 255 256 256 258 261 261 258 256 259 259 260 263 262 254 245 246 249 251 252 255
233 234 231 241 244 239 231 231 231 231 230 233 228 222 223 225 219 216 218 222 225 223 230 223 224 234 235 228 227 229 230 240 244 242 239 247 250 251 252 256 258 260 259 257 254 253 255 256 258 259 258 262 263 264 267 268 260 255 254 254 254 255 259
240 241 240 242 242 233 217 217 214 218 221 220 221 222 227 227 224 221 222 224 228 231 230 232 228 233 234 234 235 237 239 250 258 253 251 251 250 252 254 257 258 261 262 261 260 257 254 253 251 253 258 260 262 264 264 261 255 258 258 254 253 256 257
243 244 247 246 234 216 211 211 204 207 211 212 215 220 224 230 229 226 226 227 228 230 230 230 229 227 226 226 229 235 237 248 253 243 240 240 236 238 245 250 252 258 260 261 262 262 260 257 256 257 261 263 263 264 264 259 252 255 257 256 251 251 259
246 242 244 233 220 213 215 209 203 202 203 200 205 214 222 224 225 228 228 226 225 228 230 232 230 227 227 232 234 236 242 247 245 239 238 239 238 241 245 240 241 256 263 260 261 263 263 262 262 263 265 265 265 266 261 258 249 250 252 254 252 247 256
244 241 239 223 212 218 217 210 213 212 204 197 194 201 213 219 224 227 227 226 226 227 230 233 232 233 235 233 237 237 231 231 237 239 239 241 245 249 246 248 252 264 267 266 264 265 265 264 266 265 265 265 266 266 261 257 249 247 250 252 250 252 256
249 241 238 234 231 231 227 221 229 227 221 210 199 192 198 207 215 220 220 221 222 224 225 225 225 225 229 230 226 231 232 227 225 227 232 234 243 244 240 236 238 252 270 272 270 267 264 263 263 261 264 267 267 265 262 258 251 247 247 248 247 251 255
256 250 246 243 245 245 241 237 233 234 232 231 223 207 203 210 219 219 214 210 211 213 215 215 216 221 224 226 226 225 227 228 228 228 232 237 239 240 239 240 240 252 267 272 271 266 263 261 260 258 257 259 263 265 262 258 253 248 247 246 247 251 256
260 257 256 257 258 257 255 248 244 238 237 233 227 224 221 222 231 230 223 216 210 207 210 213 218 225 229 235 237 237 236 235 237 240 239 241 245 244 243 241 238 238 268 285 276 271 265 260 257 256 255 256 258 260 260 258 254 251 247 245 243 244 253
257 262 nan nan nan nan nan 245 242 249 249 245 245 240 233 231 234 232 227 225 221 218 214 217 231 240 242 243 246 248 248 248 249 249 246 245 247 245 242 237 233 243 253 260 277 275 265 264 262 256 254 256 257 257 256 258 257 253 249 246 244 242 246
257 nan nan nan nan nan nan nan 251 257 257 250 249 252 251 249 251 250 245 238 234 231 228 231 239 248 253 254 253 256 257 257 260 256 251 248 246 242 238 nan nan nan 255 266 273 274 272 268 264 259 257 257 256 255 257 259 257 258 252 247 244 243 245
nan 248 nan nan nan nan nan nan 237 233 237 240 245 250 252 250 251 258 263 260 254 245 238 238 244 249 254 nan nan 257 259 260 259 261 258 255 nan nan 244 nan nan 250 259 266 268 270 273 275 274 270 264 260 254 252 258 266 270 261 261 251 245 244 246
236 nan nan nan nan nan nan nan nan nan nan 238 nan nan nan nan 250 250 257 264 269 262 nan 248 nan nan nan nan nan nan nan nan nan nan nan nan nan nan nan nan nan nan nan 274 277 277 275 275 281 285 283 278 271 263 263 269 275 274 265 256 243 241 241
nan nan nan nan nan nan nan nan nan nan nan nan nan nan 244 nan nan nan nan nan nan nan nan nan nan nan nan nan nan nan nan nan nan nan nan nan nan nan nan nan nan nan nan nan nan nan nan nan nan 283 285 285 282 278 274 275 277 278 270 259 nan nan nan
nan nan nan nan nan nan nan nan nan nan nan nan 251 249 249 250 nan 255 nan nan nan nan nan nan nan nan nan nan nan nan nan nan nan nan nan nan nan nan nan nan nan nan nan nan nan nan nan nan nan 280 279 281 282 281 280 279 279 278 276 268 261 nan nan
nan nan nan nan nan nan nan nan nan nan nan nan 250 255 256 256 257 257 260 257 nan nan nan nan nan nan nan nan nan nan nan nan nan nan nan nan nan nan nan nan nan nan nan nan nan nan nan nan nan nan nan nan nan nan nan nan nan nan nan nan nan nan nan
223 nan nan nan nan nan nan nan nan nan nan nan nan nan nan nan nan nan 246 nan nan nan nan nan nan nan nan nan nan nan nan nan nan nan nan nan nan nan nan nan nan nan nan nan nan nan nan nan nan nan nan nan nan nan nan nan nan nan nan nan nan nan nan
nan 235 236 233 229 233 238 242 nan nan nan nan nan nan 243 245 nan nan nan nan 251 255 264 nan nan nan nan nan nan nan nan nan nan nan nan nan nan nan nan nan nan nan nan nan nan nan nan nan nan nan nan nan nan nan nan nan nan nan nan nan nan nan nan
241 246 243 238 236 239 242 242 244 244 243 241 nan nan nan nan nan nan nan nan nan nan nan nan nan nan nan nan nan nan nan nan nan nan nan nan nan nan nan nan nan nan nan nan nan nan nan nan nan nan nan nan nan nan nan nan nan nan nan nan nan nan nan
238 244 244 242 241 240 239 240 241 241 241 240 241 244 nan nan nan nan nan nan nan nan nan nan nan nan nan nan nan nan nan nan nan nan nan nan nan nan nan nan nan nan nan nan nan nan nan nan nan nan nan nan nan nan nan nan nan nan nan nan nan nan nan
215 214 223 235 237 238 239 239 238 239 240 241 244 248 254 nan nan 254 nan nan nan nan nan 249 260 nan nan nan nan nan nan nan nan nan nan nan nan nan nan nan nan nan nan nan nan nan nan nan nan nan nan nan nan nan nan nan nan nan nan nan nan nan nan